Weather observations for the past three days for
New Bern, Craven County Regional Airport
Imperial (Metric)
Date Time (edt) Wind (mph) Vis. (mi.) Weather Sky Cond. Temperature (ºF) Relative Humidity Wind Chill (°F) Heat Index (°F) Pressure Precipitation (in)
Air Dwpt 6 hour altimeter (in) sea level (mb) 1 hr 3 hr 6 hr
Max. Min.
05 20:54 Calm 10.00 Fair CLR 73.4 71.6 94% 29.86 0.0
05 19:54 Calm 10.00 A Few Clouds FEW011 FEW047 73.4 71.6 94% 29.83 0.0
05 18:54 Calm 10.00 Light Rain FEW047 73.4 71.6 94% 29.88 0.0
05 17:54 Calm 3.00 Heavy Rain SCT050 BKN060 BKN080 77 71.6 83% 78 29.82 0.0
05 16:54 Calm 10.00 A Few Clouds FEW046 82.4 73.4 74% 88 29.79 0.0
05 13:54 Calm 10.00 A Few Clouds FEW035 91.4 77 63% 105 29.84 0.0
05 12:54 Calm 10.00 Mostly Cloudy BKN035 91.4 77 63% 105 29.86 0.0
05 11:54 Calm 10.00 Fair CLR 89.6 77 67% 103 29.89 0.0
05 10:54 Calm 10.00 Fair CLR 87.8 77 70% 100 29.89 0.0
05 06:54 Calm 10.00 Fair CLR 75.2 73.4 94% 74 29.88 0.0
04 21:54 Calm 10.00 Mostly Cloudy BKN049 80.6 75.2 84% 86 30.02 0.0
04 20:54 Calm 10.00 Fair CLR 80.6 75.2 84% 86 29.95 0.0
04 19:54 Calm 10.00 Fair CLR 82.4 77 84% 91 29.94 0.0
04 18:54 Calm 10.00 Fair CLR 87.8 78.8 75% 102 29.93 0.0
04 17:54 Calm 10.00 Fair CLR 89.6 77 67% 103 29.93 0.0
04 16:54 Calm 10.00 Fair CLR 93.2 75.2 56% 105 29.91 0.0
04 15:54 Calm 10.00 Fair CLR 93.2 75.2 56% 105 29.95 0.0
04 14:54 Calm 10.00 Fair CLR 91.4 75.2 59% 103 29.98 0.0
04 13:54 Calm 10.00 Fair CLR 91.4 75.2 59% 103 30.01 0.0
04 12:54 Calm 10.00 Fair CLR 91.4 75.2 59% 103 30.01 0.0
04 11:54 Calm 10.00 Fair CLR 89.6 75.2 63% 100 30.03 0.0
04 10:54 Calm 10.00 Fair CLR 87.8 75.2 66% 98 30.03 0.0
04 09:54 Calm 10.00 A Few Clouds FEW016 84.2 77 79% 94 30.03 0.0
04 07:54 Calm 10.00 Fair CLR 75.2 75.2 100% 73 30.02 0.0
04 05:54 Calm 10.00 Fair CLR 75.2 75.2 100% 73 30.01 0.0
03 21:54 Calm 10.00 Fair CLR 78.8 77 94% 83 30.05 0.0
03 20:54 Calm 10.00 Fair CLR 80.6 75.2 84% 86 30.02 0.0
03 19:54 Calm 10.00 Fair CLR 82.4 75.2 79% 89 30.01 0.0
03 18:54 Calm 10.00 Fair CLR 84.2 73.4 70% 91 30.01 0.0
03 17:54 Calm 10.00 Fair CLR 89.6 73.4 59% 98 30.01 0.0
03 16:54 Calm 10.00 Fair CLR 91.4 73.4 56% 100 30 0.0
03 15:54 Calm 10.00 Fair CLR 93.2 75.2 56% 105 30.02 0.0
03 14:54 Calm 10.00 A Few Clouds FEW040 93.2 77 59% 107 30.04 0.0
03 13:54 Calm 10.00 Fair CLR 91.4 75.2 59% 103 30.05 0.0
03 12:54 Calm 10.00 Fair CLR 91.4 75.2 59% 103 30.06 0.0
03 11:54 Calm 10.00 Fair CLR 89.6 75.2 63% 100 30.08 0.0
03 10:54 Calm 10.00 Fair CLR 86 71.6 62% 92 30.08 0.0
03 09:54 Calm 10.00 Fair CLR 80.6 75.2 84% 86 30.08 0.0
03 08:54 Calm 10.00 Fair CLR 80.6 75.2 84% 86 30.09 0.0
03 07:54 Calm 10.00 Fair CLR 75.2 73.4 94% 74 30.08 0.0
Date Time (edt) Wind (mph) Vis. (mi.) Weather Sky Cond. Air Dwpt Max. Min. Relative Humidity Wind Chill (°F) Heat Index (°F) altimeter (in) sea level (mb) 1 hr 3 hr 6 hr
6 hour
Temperature (ºF) Pressure Precipitation (in)